Ogden Hill AFB, UT

5:30 AM MDT on March 29, 2017 (GMT -0600)
Hill Air Force Base

Weather History for KHIF - November, 2011

Change the Weather History Date:

Tuesday, November 29, 2011

  Actual Average Record
Temperature  
Mean Temperature 39 °F -  
Max Temperature 48 °F 39 °F 60 °F (2014)
Min Temperature 30 °F 25 °F 10 °F (2004)
Degree Days  
Heating Degree Days 26    
Moisture  
Dew Point 25 °F    
Average Humidity 61    
Maximum Humidity 73    
Minimum Humidity 40    
Precipitation  
Precipitation 0.00 in - - ()
Sea Level Pressure  
Sea Level Pressure 30.32 in    
Wind  
Wind Speed 4 mph (ENE)    
Max Wind Speed 12 mph    
Max Gust Speed -    
Visibility 10 miles    
Events      
Averages and records for this station are not official NWS values.
T = Trace of Precipitation, MM = Missing Value Source: NWS Daily Summary

Daily Weather History Graph

Daily Weather History Graph

Search for Another Location

Airport or City:

Trip Planner

Search our weather history database for the weather conditions in past years. The results will help you decide how hot, cold, wet, or windy it might be!

Date:

Astronomy

Nov. 29, 2011 Rise Set
Actual Time 7:31 AM MST 5:00 PM MST
Civil Twilight 7:00 AM MST 5:31 PM MST
Nautical Twilight 6:26 AM MST 6:05 PM MST
Astronomical Twilight 5:53 AM MST 6:38 PM MST
Moon 11:19 AM MST 9:59 PM MST
Length of Visible Light 10h 30m
Length of Day
9h 29m
Waxing Crescent, 25% of the Moon is Illuminated
Nov 29
Waxing Crescent
Dec 2
First Quarter
Dec 10
Full
Dec 17
Last Quarter
Dec 24
New

Hourly Weather History & Observations

Time (MST) Temp. Windchill Dew Point Humidity Pressure Visibility Wind Dir Wind Speed Gust Speed Precip Events Conditions
12:55 AM 35.8 °F 33.0 °F 25.5 °F 66% 30.36 in 10.0 mi NE 3.5 mph - N/A   Clear
1:55 AM 33.4 °F - 23.9 °F 68% 30.38 in 10.0 mi Calm Calm - N/A   Clear
2:55 AM 30.9 °F 26.2 °F 22.5 °F 71% 30.40 in 10.0 mi ESE 4.6 mph - N/A   Clear
3:55 AM 31.8 °F 24.6 °F 23.5 °F 71% 30.40 in 10.0 mi ENE 8.1 mph - N/A   Clear
4:55 AM 31.8 °F 27.3 °F 22.3 °F 68% 30.42 in 10.0 mi ESE 4.6 mph - N/A   Clear
5:55 AM 32.4 °F 23.5 °F 22.8 °F 68% 30.40 in 10.0 mi NE 11.5 mph - N/A   Clear
6:55 AM 31.6 °F 23.7 °F 22.3 °F 68% 30.42 in 10.0 mi ENE 9.2 mph - N/A   Clear
7:55 AM 30.2 °F 24.3 °F 22.1 °F 72% 30.42 in 10.0 mi East 5.8 mph - N/A   Clear
8:55 AM 34.5 °F 26.7 °F 22.6 °F 62% 30.43 in 10.0 mi East 10.4 mph - N/A   Clear
9:55 AM 38.3 °F 34.8 °F 23.5 °F 55% 30.42 in 10.0 mi East 4.6 mph - N/A   Clear
10:55 AM 41.9 °F 36.9 °F 25.0 °F 51% 30.42 in 10.0 mi ENE 8.1 mph - N/A   Clear
11:55 AM 45.0 °F 43.5 °F 24.6 °F 45% 30.38 in 10.0 mi Variable 3.5 mph - N/A   Clear
12:55 PM 46.6 °F - 26.6 °F 46% 30.33 in 10.0 mi South 3.5 mph - N/A   Clear
1:55 PM 47.7 °F - 24.1 °F 40% 30.30 in 10.0 mi Variable 3.5 mph - N/A   Clear
2:55 PM 48.2 °F - 28.8 °F 47% 30.31 in 10.0 mi WNW 8.1 mph - N/A   Clear
3:55 PM 43.2 °F - 29.5 °F 59% 30.30 in 10.0 mi Calm Calm - N/A   Clear
4:55 PM 43.0 °F - 29.1 °F 58% 30.28 in 10.0 mi Calm Calm - N/A   Clear
5:15 PM 42.8 °F - 30.2 °F 61% 30.28 in 10.0 mi Calm Calm - N/A   Clear
5:21 PM 41.0 °F 39.0 °F 28.4 °F 61% 30.28 in 10.0 mi North 3.5 mph - N/A   Clear
5:55 PM 41.2 °F - 28.9 °F 62% 30.27 in 10.0 mi Calm Calm - N/A   Partly Cloudy
6:55 PM 38.5 °F 33.4 °F 28.2 °F 67% 30.27 in 10.0 mi NW 6.9 mph - N/A   Mostly Cloudy
7:55 PM 37.4 °F 34.9 °F 27.7 °F 68% 30.27 in 10.0 mi NNE 3.5 mph - N/A   Partly Cloudy
8:55 PM 34.7 °F 29.6 °F 26.8 °F 73% 30.22 in 10.0 mi East 5.8 mph - N/A   Mostly Cloudy
9:55 PM 37.2 °F 31.2 °F 24.6 °F 60% 30.19 in 10.0 mi ENE 8.1 mph - N/A   Clear
10:55 PM 36.3 °F - 24.4 °F 62% 30.17 in 10.0 mi Calm Calm - N/A   Clear
11:55 PM 34.3 °F - 24.1 °F 66% 30.13 in 10.0 mi Calm Calm - N/A   Clear